PRIVATE WETTERSTATION BILLIGHEIM-ALLFELD                       ZURCK
Wetterdaten: Mittwoch, 26.01.2022
Datum Zeit Temp. A. Temp. A. min Temp. A. max Feuchte A. Luftdruck Regen Wind Richtung Richtung Sonnenschein ET Solar Taupunkt Windchill Windben Empfang
26.01.2022 00:00 -0,9 C -0,9 C -0,8 C 92 % 1032,3 hPa 0,0 l/m 0,0 km/h (0 Bft) N 0 0 min 0,000 mm 0 W/m -2,0 C -0,9 C 0,0 km/h (0 Bft) 100 %
26.01.2022 00:10 -1,0 C -1,0 C -0,9 C 92 % 1032,3 hPa 0,0 l/m 0,0 km/h (0 Bft) SW 225 0 min 0,000 mm 0 W/m -2,1 C -1,0 C 3,2 km/h (1 Bft) 100 %
26.01.2022 00:20 -1,1 C -1,1 C -1,0 C 92 % 1032,3 hPa 0,0 l/m 0,0 km/h (0 Bft) N 0 0 min 0,000 mm 0 W/m -2,2 C -1,1 C 0,0 km/h (0 Bft) 92 %
26.01.2022 00:30 -1,1 C -1,1 C -1,1 C 92 % 1032,3 hPa 0,0 l/m 0,0 km/h (0 Bft) N 0 0 min 0,000 mm 0 W/m -2,2 C -1,1 C 0,0 km/h (0 Bft) 100 %
26.01.2022 00:40 -1,2 C -1,2 C -1,1 C 92 % 1032,3 hPa 0,0 l/m 0,0 km/h (0 Bft) SW 225 0 min 0,000 mm 0 W/m -2,3 C -1,2 C 3,2 km/h (1 Bft) 100 %
26.01.2022 00:50 -1,2 C -1,3 C -1,2 C 92 % 1032,3 hPa 0,0 l/m 0,0 km/h (0 Bft) N 0 0 min 0,000 mm 0 W/m -2,3 C -1,2 C 0,0 km/h (0 Bft) 100 %
26.01.2022 01:00 -1,1 C -1,2 C -1,1 C 92 % 1032,3 hPa 0,0 l/m 0,0 km/h (0 Bft) N 0 0 min 0,000 mm 0 W/m -2,2 C -1,1 C 0,0 km/h (0 Bft) 100 %
26.01.2022 01:10 -0,9 C -1,1 C -0,9 C 92 % 1032,2 hPa 0,0 l/m 0,0 km/h (0 Bft) N 0 0 min 0,000 mm 0 W/m -2,0 C -0,9 C 0,0 km/h (0 Bft) 100 %
26.01.2022 01:20 -0,9 C -0,9 C -0,9 C 92 % 1032,2 hPa 0,0 l/m 0,0 km/h (0 Bft) N 0 0 min 0,000 mm 0 W/m -2,0 C -0,9 C 0,0 km/h (0 Bft) 100 %
26.01.2022 01:30 -0,9 C -1,0 C -0,9 C 92 % 1032,0 hPa 0,0 l/m 0,0 km/h (0 Bft) SW 225 0 min 0,000 mm 0 W/m -2,0 C -0,9 C 3,2 km/h (1 Bft) 100 %
26.01.2022 01:40 -1,1 C -1,1 C -0,9 C 92 % 1032,0 hPa 0,0 l/m 1,6 km/h (1 Bft) SW 225 0 min 0,000 mm 0 W/m -2,2 C -1,1 C 6,4 km/h (2 Bft) 100 %
26.01.2022 01:50 -1,1 C -1,2 C -1,1 C 92 % 1032,1 hPa 0,0 l/m 0,0 km/h (0 Bft) SW 225 0 min 0,000 mm 0 W/m -2,2 C -1,1 C 3,2 km/h (1 Bft) 100 %
26.01.2022 02:00 -1,1 C -1,1 C -1,1 C 92 % 1032,2 hPa 0,0 l/m 0,0 km/h (0 Bft) N 0 0 min 0,000 mm 0 W/m -2,2 C -1,1 C 0,0 km/h (0 Bft) 100 %
26.01.2022 02:10 -0,9 C -1,1 C -0,9 C 92 % 1032,2 hPa 0,0 l/m 0,0 km/h (0 Bft) W-SW 247 0 min 0,000 mm 0 W/m -2,0 C -0,9 C 6,4 km/h (2 Bft) 100 %
26.01.2022 02:20 -1,0 C -1,0 C -0,9 C 92 % 1032,2 hPa 0,0 l/m 0,0 km/h (0 Bft) N 0 0 min 0,000 mm 0 W/m -2,1 C -1,0 C 0,0 km/h (0 Bft) 100 %
26.01.2022 02:30 -1,0 C -1,1 C -1,0 C 92 % 1032,1 hPa 0,0 l/m 0,0 km/h (0 Bft) N 0 0 min 0,000 mm 0 W/m -2,1 C -1,0 C 0,0 km/h (0 Bft) 100 %
26.01.2022 02:40 -1,1 C -1,1 C -1,0 C 92 % 1032,1 hPa 0,0 l/m 0,0 km/h (0 Bft) W-SW 247 0 min 0,000 mm 0 W/m -2,2 C -1,1 C 3,2 km/h (1 Bft) 100 %
26.01.2022 02:50 -1,0 C -1,1 C -1,0 C 92 % 1032,2 hPa 0,0 l/m 0,0 km/h (0 Bft) N 0 0 min 0,000 mm 0 W/m -2,1 C -1,0 C 0,0 km/h (0 Bft) 100 %
26.01.2022 03:00 -0,8 C -1,0 C -0,8 C 92 % 1032,2 hPa 0,0 l/m 0,0 km/h (0 Bft) N 0 0 min 0,000 mm 0 W/m -1,9 C -0,8 C 0,0 km/h (0 Bft) 100 %
26.01.2022 03:10 -0,7 C -0,8 C -0,7 C 92 % 1032,3 hPa 0,0 l/m 0,0 km/h (0 Bft) N 0 0 min 0,000 mm 0 W/m -1,8 C -0,7 C 0,0 km/h (0 Bft) 100 %
26.01.2022 03:20 -0,6 C -0,7 C -0,6 C 92 % 1032,2 hPa 0,0 l/m 0,0 km/h (0 Bft) N 0 0 min 0,000 mm 0 W/m -1,7 C -0,6 C 0,0 km/h (0 Bft) 100 %
26.01.2022 03:30 -0,6 C -0,6 C -0,5 C 92 % 1032,3 hPa 0,0 l/m 0,0 km/h (0 Bft) N 0 0 min 0,000 mm 0 W/m -1,7 C -0,6 C 0,0 km/h (0 Bft) 100 %
26.01.2022 03:40 -0,6 C -0,6 C -0,5 C 93 % 1032,3 hPa 0,0 l/m 0,0 km/h (0 Bft) W-SW 247 0 min 0,000 mm 0 W/m -1,6 C -0,6 C 3,2 km/h (1 Bft) 100 %
26.01.2022 03:50 -0,7 C -0,7 C -0,6 C 93 % 1032,2 hPa 0,0 l/m 0,0 km/h (0 Bft) W-SW 247 0 min 0,000 mm 0 W/m -1,7 C -0,7 C 3,2 km/h (1 Bft) 100 %
26.01.2022 04:00 -0,7 C -0,7 C -0,7 C 93 % 1032,2 hPa 0,0 l/m 0,0 km/h (0 Bft) W 270 0 min 0,000 mm 0 W/m -1,7 C -0,7 C 3,2 km/h (1 Bft) 100 %
26.01.2022 04:10 -0,6 C -0,7 C -0,6 C 93 % 1032,1 hPa 0,0 l/m 0,0 km/h (0 Bft) W 270 0 min 0,000 mm 0 W/m -1,6 C -0,6 C 3,2 km/h (1 Bft) 100 %
26.01.2022 04:20 -0,7 C -0,7 C -0,6 C 93 % 1032,2 hPa 0,0 l/m 0,0 km/h (0 Bft) N 0 0 min 0,000 mm 0 W/m -1,7 C -0,7 C 0,0 km/h (0 Bft) 100 %
26.01.2022 04:30 -0,7 C -0,7 C -0,7 C 93 % 1032,1 hPa 0,0 l/m 0,0 km/h (0 Bft) N 0 0 min 0,000 mm 0 W/m -1,7 C -0,7 C 0,0 km/h (0 Bft) 100 %
26.01.2022 04:40 -0,8 C -0,8 C -0,7 C 93 % 1032,1 hPa 0,0 l/m 1,6 km/h (1 Bft) W 270 0 min 0,000 mm 0 W/m -1,8 C -0,8 C 4,8 km/h (1 Bft) 99 %
26.01.2022 04:50 -0,8 C -0,9 C -0,8 C 93 % 1032,0 hPa 0,0 l/m 0,0 km/h (0 Bft) N 0 0 min 0,000 mm 0 W/m -1,8 C -0,8 C 0,0 km/h (0 Bft) 100 %
26.01.2022 05:00 -0,9 C -0,9 C -0,8 C 93 % 1032,0 hPa 0,0 l/m 0,0 km/h (0 Bft) N 0 0 min 0,000 mm 0 W/m -1,9 C -0,9 C 0,0 km/h (0 Bft) 100 %
26.01.2022 05:10 -0,9 C -0,9 C -0,9 C 93 % 1032,0 hPa 0,0 l/m 0,0 km/h (0 Bft) W 270 0 min 0,000 mm 0 W/m -1,9 C -0,9 C 3,2 km/h (1 Bft) 100 %
26.01.2022 05:20 -0,9 C -0,9 C -0,9 C 93 % 1031,8 hPa 0,0 l/m 0,0 km/h (0 Bft) N 0 0 min 0,000 mm 0 W/m -1,9 C -0,9 C 0,0 km/h (0 Bft) 100 %
26.01.2022 05:30 -0,9 C -0,9 C -0,9 C 93 % 1032,0 hPa 0,0 l/m 0,0 km/h (0 Bft) W 270 0 min 0,000 mm 0 W/m -1,9 C -0,9 C 1,6 km/h (1 Bft) 90 %
26.01.2022 05:40 -0,9 C -0,9 C -0,9 C 93 % 1031,9 hPa 0,0 l/m 0,0 km/h (0 Bft) W 270 0 min 0,000 mm 0 W/m -1,9 C -0,9 C 4,8 km/h (1 Bft) 100 %
26.01.2022 05:50 -1,1 C -1,1 C -0,9 C 93 % 1031,8 hPa 0,0 l/m 0,0 km/h (0 Bft) N 0 0 min 0,000 mm 0 W/m -2,1 C -1,1 C 0,0 km/h (0 Bft) 100 %
26.01.2022 06:00 -1,1 C -1,1 C -1,1 C 93 % 1031,9 hPa 0,0 l/m 0,0 km/h (0 Bft) N 0 0 min 0,000 mm 0 W/m -2,1 C -1,1 C 0,0 km/h (0 Bft) 100 %
26.01.2022 06:10 -1,2 C -1,2 C -1,1 C 93 % 1031,9 hPa 0,0 l/m 0,0 km/h (0 Bft) N 0 0 min 0,000 mm 0 W/m -2,2 C -1,2 C 0,0 km/h (0 Bft) 99 %
26.01.2022 06:20 -1,3 C -1,3 C -1,2 C 93 % 1031,8 hPa 0,0 l/m 0,0 km/h (0 Bft) N 0 0 min 0,000 mm 0 W/m -2,3 C -1,3 C 0,0 km/h (0 Bft) 100 %
26.01.2022 06:30 -1,4 C -1,4 C -1,3 C 93 % 1031,9 hPa 0,0 l/m 0,0 km/h (0 Bft) N 0 0 min 0,000 mm 0 W/m -2,4 C -1,4 C 0,0 km/h (0 Bft) 100 %
26.01.2022 06:40 -1,4 C -1,4 C -1,4 C 92 % 1031,8 hPa 0,0 l/m 1,6 km/h (1 Bft) W 270 0 min 0,000 mm 0 W/m -2,5 C -1,4 C 4,8 km/h (1 Bft) 100 %
26.01.2022 06:50 -1,5 C -1,5 C -1,4 C 92 % 1031,8 hPa 0,0 l/m 3,2 km/h (1 Bft) W 270 0 min 0,000 mm 0 W/m -2,6 C -1,5 C 8,0 km/h (2 Bft) 100 %
26.01.2022 07:00 -1,6 C -1,6 C -1,5 C 92 % 1031,7 hPa 0,0 l/m 3,2 km/h (1 Bft) SW 225 0 min 0,000 mm 0 W/m -2,7 C -1,6 C 9,7 km/h (2 Bft) 99 %
26.01.2022 07:10 -1,7 C -1,7 C -1,6 C 92 % 1031,5 hPa 0,0 l/m 4,8 km/h (1 Bft) SW 225 0 min 0,000 mm 0 W/m -2,8 C -1,7 C 9,7 km/h (2 Bft) 100 %
26.01.2022 07:20 -1,7 C -1,7 C -1,7 C 92 % 1031,6 hPa 0,0 l/m 3,2 km/h (1 Bft) SW 225 0 min 0,000 mm 0 W/m -2,8 C -1,7 C 8,0 km/h (2 Bft) 100 %
26.01.2022 07:30 -1,8 C -1,8 C -1,7 C 92 % 1031,8 hPa 0,0 l/m 1,6 km/h (1 Bft) SW 225 0 min 0,000 mm 0 W/m -2,9 C -1,8 C 6,4 km/h (2 Bft) 100 %
26.01.2022 07:40 -1,8 C -1,8 C -1,8 C 92 % 1031,7 hPa 0,0 l/m 1,6 km/h (1 Bft) SW 225 0 min 0,000 mm 0 W/m -2,9 C -1,8 C 6,4 km/h (2 Bft) 99 %
26.01.2022 07:50 -1,8 C -1,8 C -1,8 C 92 % 1031,9 hPa 0,0 l/m 1,6 km/h (1 Bft) W-NW 292 0 min 0,000 mm 0 W/m -2,9 C -1,8 C 8,0 km/h (2 Bft) 100 %
26.01.2022 08:00 -1,9 C -1,9 C -1,8 C 92 % 1032,1 hPa 0,0 l/m 1,6 km/h (1 Bft) W 270 0 min 0,000 mm 0 W/m -3,0 C -1,9 C 8,0 km/h (2 Bft) 88 %
26.01.2022 08:10 -1,9 C -1,9 C -1,9 C 92 % 1032,2 hPa 0,0 l/m 3,2 km/h (1 Bft) W-SW 247 0 min 0,000 mm 0 W/m -3,0 C -1,9 C 8,0 km/h (2 Bft) 99 %
26.01.2022 08:20 -1,9 C -1,9 C -1,9 C 92 % 1032,2 hPa 0,0 l/m 3,2 km/h (1 Bft) W-SW 247 0 min 0,000 mm 0 W/m -3,0 C -1,9 C 9,7 km/h (2 Bft) 100 %
26.01.2022 08:30 -1,8 C -1,9 C -1,8 C 92 % 1032,2 hPa 0,0 l/m 1,6 km/h (1 Bft) W 270 0 min 0,000 mm 0 W/m -2,9 C -1,8 C 8,0 km/h (2 Bft) 100 %
26.01.2022 08:40 -1,8 C -1,8 C -1,8 C 92 % 1032,4 hPa 0,0 l/m 3,2 km/h (1 Bft) W 270 0 min 0,000 mm 5 W/m -2,9 C -1,8 C 8,0 km/h (2 Bft) 100 %
26.01.2022 08:50 -1,7 C -1,8 C -1,7 C 92 % 1032,5 hPa 0,0 l/m 1,6 km/h (1 Bft) W 270 0 min 0,000 mm 7 W/m -2,8 C -1,7 C 8,0 km/h (2 Bft) 100 %
26.01.2022 09:00 -1,8 C -1,8 C -1,7 C 92 % 1032,6 hPa 0,0 l/m 3,2 km/h (1 Bft) W 270 0 min 0,000 mm 11 W/m -2,9 C -1,8 C 8,0 km/h (2 Bft) 100 %
26.01.2022 09:10 -1,8 C -1,8 C -1,7 C 92 % 1032,6 hPa 0,0 l/m 3,2 km/h (1 Bft) W 270 0 min 0,000 mm 11 W/m -2,9 C -1,8 C 9,7 km/h (2 Bft) 100 %
26.01.2022 09:20 -1,7 C -1,8 C -1,7 C 92 % 1032,5 hPa 0,0 l/m 1,6 km/h (1 Bft) W 270 0 min 0,000 mm 12 W/m -2,8 C -1,7 C 6,4 km/h (2 Bft) 100 %
26.01.2022 09:30 -1,7 C -1,8 C -1,7 C 92 % 1032,5 hPa 0,0 l/m 1,6 km/h (1 Bft) W 270 0 min 0,000 mm 12 W/m -2,8 C -1,7 C 6,4 km/h (2 Bft) 100 %
26.01.2022 09:40 -1,7 C -1,7 C -1,7 C 92 % 1032,7 hPa 0,0 l/m 3,2 km/h (1 Bft) W 270 0 min 0,000 mm 14 W/m -2,8 C -1,7 C 8,0 km/h (2 Bft) 99 %
26.01.2022 09:50 -1,7 C -1,7 C -1,7 C 92 % 1032,7 hPa 0,0 l/m 3,2 km/h (1 Bft) W-SW 247 0 min 0,000 mm 18 W/m -2,8 C -1,7 C 11,3 km/h (2 Bft) 100 %
26.01.2022 10:00 -1,6 C -1,7 C -1,6 C 92 % 1032,6 hPa 0,0 l/m 1,6 km/h (1 Bft) W-SW 247 0 min 0,000 mm 19 W/m -2,7 C -1,6 C 8,0 km/h (2 Bft) 100 %
26.01.2022 10:10 -1,5 C -1,6 C -1,5 C 92 % 1032,6 hPa 0,0 l/m 1,6 km/h (1 Bft) W 270 0 min 0,000 mm 21 W/m -2,6 C -1,5 C 8,0 km/h (2 Bft) 100 %
26.01.2022 10:20 -1,4 C -1,5 C -1,4 C 92 % 1032,1 hPa 0,0 l/m 1,6 km/h (1 Bft) W 270 0 min 0,000 mm 25 W/m -2,5 C -1,4 C 6,4 km/h (2 Bft) 100 %
26.01.2022 10:30 -1,5 C -1,5 C -1,4 C 92 % 1032,3 hPa 0,0 l/m 3,2 km/h (1 Bft) W 270 0 min 0,000 mm 26 W/m -2,6 C -1,5 C 11,3 km/h (2 Bft) 100 %
26.01.2022 10:40 -1,5 C -1,5 C -1,5 C 92 % 1032,1 hPa 0,0 l/m 1,6 km/h (1 Bft) W 270 0 min 0,000 mm 26 W/m -2,6 C -1,5 C 9,7 km/h (2 Bft) 89 %
26.01.2022 10:50 -1,4 C -1,5 C -1,4 C 92 % 1032,5 hPa 0,0 l/m 1,6 km/h (1 Bft) SW 225 0 min 0,000 mm 28 W/m -2,5 C -1,4 C 9,7 km/h (2 Bft) 100 %
26.01.2022 11:00 -1,4 C -1,4 C -1,4 C 92 % 1032,4 hPa 0,1 l/m 4,8 km/h (1 Bft) SW 225 0 min 0,000 mm 28 W/m -2,5 C -1,4 C 14,5 km/h (3 Bft) 100 %
26.01.2022 11:10 -1,3 C -1,4 C -1,3 C 92 % 1032,5 hPa 0,0 l/m 1,6 km/h (1 Bft) S-SW 202 0 min 0,000 mm 32 W/m -2,4 C -1,3 C 8,0 km/h (2 Bft) 100 %
26.01.2022 11:20 -1,2 C -1,3 C -1,2 C 92 % 1032,5 hPa 0,0 l/m 0,0 km/h (0 Bft) W-NW 292 0 min 0,000 mm 32 W/m -2,3 C -1,2 C 4,8 km/h (1 Bft) 100 %
26.01.2022 11:30 -1,1 C -1,2 C -1,1 C 92 % 1032,7 hPa 0,0 l/m 1,6 km/h (1 Bft) W 270 0 min 0,000 mm 30 W/m -2,2 C -1,1 C 8,0 km/h (2 Bft) 100 %
26.01.2022 11:40 -1,1 C -1,1 C -1,0 C 92 % 1032,9 hPa 0,0 l/m 3,2 km/h (1 Bft) W 270 0 min 0,000 mm 28 W/m -2,2 C -1,1 C 12,9 km/h (3 Bft) 100 %
26.01.2022 11:50 -1,2 C -1,2 C -1,1 C 92 % 1032,7 hPa 0,0 l/m 3,2 km/h (1 Bft) W-NW 292 0 min 0,000 mm 35 W/m -2,3 C -1,2 C 16,1 km/h (3 Bft) 90 %
26.01.2022 12:00 -1,2 C -1,2 C -1,2 C 92 % 1032,6 hPa 0,0 l/m 3,2 km/h (1 Bft) W 270 0 min 0,000 mm 35 W/m -2,3 C -1,2 C 9,7 km/h (2 Bft) 100 %
26.01.2022 12:10 -1,3 C -1,3 C -1,2 C 92 % 1032,7 hPa 0,0 l/m 3,2 km/h (1 Bft) W-NW 292 0 min 0,000 mm 33 W/m -2,4 C -1,3 C 9,7 km/h (2 Bft) 100 %
26.01.2022 12:20 -1,3 C -1,3 C -1,2 C 92 % 1032,5 hPa 0,0 l/m 1,6 km/h (1 Bft) NW 315 0 min 0,000 mm 37 W/m -2,4 C -1,3 C 8,0 km/h (2 Bft) 100 %
26.01.2022 12:30 -1,3 C -1,3 C -1,3 C 92 % 1032,4 hPa 0,0 l/m 1,6 km/h (1 Bft) W 270 0 min 0,000 mm 39 W/m -2,4 C -1,3 C 8,0 km/h (2 Bft) 100 %
26.01.2022 12:50 -1,2 C -1,3 C -1,2 C 92 % 1032,2 hPa 0,0 l/m 3,2 km/h (1 Bft) W 264 0 min 0,000 mm 30 W/m -2,3 C -1,2 C 11,3 km/h (2 Bft) 97 %
26.01.2022 13:00 -1,1 C -1,2 C -1,1 C 92 % 1032,2 hPa 0,0 l/m 1,6 km/h (1 Bft) W 261 0 min 0,000 mm 30 W/m -2,2 C -1,1 C 8,0 km/h (2 Bft) 96 %
26.01.2022 13:10 -1,1 C -1,1 C -1,0 C 92 % 1032,2 hPa 0,0 l/m 4,1 km/h (1 Bft) W 262 0 min 0,000 mm 30 W/m -2,2 C -1,1 C 11,3 km/h (2 Bft) 97 %
26.01.2022 13:20 -1,1 C -1,1 C -1,0 C 92 % 1032,3 hPa 0,0 l/m 5,1 km/h (1 Bft) W 267 0 min 0,000 mm 30 W/m -2,2 C -1,1 C 16,1 km/h (3 Bft) 97 %
26.01.2022 13:30 -1,2 C -1,2 C -1,1 C 92 % 1032,3 hPa 0,0 l/m 3,8 km/h (1 Bft) W 278 0 min 0,000 mm 26 W/m -2,3 C -1,2 C 14,5 km/h (3 Bft) 97 %
26.01.2022 13:40 -1,2 C -1,2 C -1,2 C 92 % 1032,4 hPa 0,0 l/m 3,1 km/h (1 Bft) W-SW 258 0 min 0,000 mm 26 W/m -2,3 C -1,2 C 11,3 km/h (2 Bft) 97 %
26.01.2022 13:50 -1,2 C -1,2 C -1,2 C 92 % 1032,1 hPa 0,0 l/m 2,6 km/h (1 Bft) W 270 0 min 0,000 mm 26 W/m -2,3 C -1,2 C 9,7 km/h (2 Bft) 97 %
26.01.2022 14:00 -1,2 C -1,2 C -1,2 C 92 % 1032,4 hPa 0,0 l/m 4,9 km/h (1 Bft) W-SW 254 0 min 0,000 mm 25 W/m -2,3 C -1,2 C 11,3 km/h (2 Bft) 97 %
26.01.2022 14:10 -1,3 C -1,3 C -1,2 C 92 % 1032,4 hPa 0,0 l/m 4,3 km/h (1 Bft) W 261 0 min 0,000 mm 21 W/m -2,4 C -1,3 C 14,5 km/h (3 Bft) 97 %
26.01.2022 14:20 -1,3 C -1,3 C -1,2 C 92 % 1032,3 hPa 0,0 l/m 3,3 km/h (1 Bft) W-SW 254 0 min 0,000 mm 18 W/m -2,4 C -1,3 C 14,5 km/h (3 Bft) 98 %
26.01.2022 14:30 -1,2 C -1,3 C -1,2 C 92 % 1032,2 hPa 0,0 l/m 3,2 km/h (1 Bft) W-SW 253 0 min 0,000 mm 19 W/m -2,3 C -1,2 C 11,3 km/h (2 Bft) 97 %
26.01.2022 14:40 -1,2 C -1,2 C -1,2 C 92 % 1032,5 hPa 0,0 l/m 2,8 km/h (1 Bft) W-NW 287 0 min 0,000 mm 14 W/m -2,3 C -1,2 C 9,7 km/h (2 Bft) 97 %
26.01.2022 14:50 -1,1 C -1,2 C -1,1 C 92 % 1032,6 hPa 0,0 l/m 4,9 km/h (1 Bft) NW 317 0 min 0,000 mm 14 W/m -2,2 C -1,1 C 16,1 km/h (3 Bft) 96 %
26.01.2022 15:00 -1,2 C -1,2 C -1,1 C 92 % 1032,8 hPa 0,0 l/m 5,0 km/h (1 Bft) W-NW 296 0 min 0,000 mm 14 W/m -2,3 C -1,2 C 11,3 km/h (2 Bft) 98 %
26.01.2022 15:10 -1,3 C -1,3 C -1,2 C 92 % 1032,7 hPa 0,0 l/m 3,9 km/h (1 Bft) W-NW 293 0 min 0,000 mm 14 W/m -2,4 C -1,3 C 11,3 km/h (2 Bft) 99 %
26.01.2022 15:20 -1,3 C -1,4 C -1,3 C 92 % 1032,8 hPa 0,0 l/m 0,4 km/h (0 Bft) W-NW 290 0 min 0,000 mm 9 W/m -2,4 C -1,3 C 8,0 km/h (2 Bft) 100 %
26.01.2022 15:30 -1,3 C -1,3 C -1,3 C 92 % 1032,7 hPa 0,0 l/m 2,0 km/h (1 Bft) NW 314 0 min 0,000 mm 11 W/m -2,4 C -1,3 C 9,7 km/h (2 Bft) 99 %
26.01.2022 15:40 -1,3 C -1,3 C -1,3 C 92 % 1032,5 hPa 0,0 l/m 1,2 km/h (1 Bft) NW 311 0 min 0,000 mm 12 W/m -2,4 C -1,3 C 8,0 km/h (2 Bft) 100 %
26.01.2022 15:50 -1,3 C -1,3 C -1,2 C 92 % 1032,2 hPa 0,0 l/m 0,9 km/h (0 Bft) NW 313 0 min 0,000 mm 12 W/m -2,4 C -1,3 C 9,7 km/h (2 Bft) 100 %
26.01.2022 16:00 -1,2 C -1,3 C -1,1 C 92 % 1032,0 hPa 0,1 l/m 0,4 km/h (0 Bft) W-NW 284 0 min 0,000 mm 11 W/m -2,3 C -1,2 C 6,4 km/h (2 Bft) 100 %
26.01.2022 16:10 -1,2 C -1,2 C -1,2 C 92 % 1032,1 hPa 0,0 l/m 0,8 km/h (0 Bft) W 261 0 min 0,000 mm 9 W/m -2,3 C -1,2 C 4,8 km/h (1 Bft) 100 %
26.01.2022 16:20 -1,3 C -1,3 C -1,2 C 92 % 1032,0 hPa 0,0 l/m 2,1 km/h (1 Bft) W-SW 252 0 min 0,000 mm 11 W/m -2,4 C -1,3 C 8,0 km/h (2 Bft) 99 %
26.01.2022 16:30 -1,3 C -1,3 C -1,3 C 92 % 1032,1 hPa 0,0 l/m 1,7 km/h (1 Bft) W 273 0 min 0,000 mm 5 W/m -2,4 C -1,3 C 8,0 km/h (2 Bft) 100 %
26.01.2022 16:40 -1,3 C -1,3 C -1,3 C 92 % 1032,2 hPa 0,0 l/m 0,5 km/h (0 Bft) W 271 0 min 0,000 mm 0 W/m -2,4 C -1,3 C 8,0 km/h (2 Bft) 100 %
26.01.2022 16:50 -1,2 C -1,3 C -1,2 C 93 % 1032,1 hPa 0,0 l/m 0,5 km/h (0 Bft) W 271 0 min 0,000 mm 0 W/m -2,2 C -1,2 C 6,4 km/h (2 Bft) 100 %
26.01.2022 17:00 -1,2 C -1,3 C -1,2 C 93 % 1032,4 hPa 0,0 l/m 4,2 km/h (1 Bft) W 278 0 min 0,000 mm 0 W/m -2,2 C -1,2 C 16,1 km/h (3 Bft) 100 %
26.01.2022 17:10 -1,3 C -1,3 C -1,2 C 93 % 1032,2 hPa 0,0 l/m 3,5 km/h (1 Bft) W 267 0 min 0,000 mm 0 W/m -2,3 C -1,3 C 11,3 km/h (2 Bft) 100 %
26.01.2022 17:20 -1,2 C -1,3 C -1,2 C 93 % 1032,2 hPa 0,0 l/m 3,1 km/h (1 Bft) W-NW 296 0 min 0,000 mm 0 W/m -2,2 C -1,2 C 11,3 km/h (2 Bft) 100 %
26.01.2022 17:30 -1,1 C -1,2 C -1,1 C 93 % 1032,5 hPa 0,0 l/m 2,0 km/h (1 Bft) NW 312 0 min 0,000 mm 0 W/m -2,1 C -1,1 C 9,7 km/h (2 Bft) 99 %
26.01.2022 17:40 -1,0 C -1,1 C -1,0 C 93 % 1032,3 hPa 0,0 l/m 1,5 km/h (1 Bft) W-NW 284 0 min 0,000 mm 0 W/m -2,0 C -1,0 C 6,4 km/h (2 Bft) 100 %
26.01.2022 17:50 -1,1 C -1,1 C -1,0 C 93 % 1032,5 hPa 0,0 l/m 1,9 km/h (1 Bft) W 270 0 min 0,000 mm 0 W/m -2,1 C -1,1 C 8,0 km/h (2 Bft) 100 %
26.01.2022 18:00 -1,2 C -1,2 C -1,1 C 93 % 1032,6 hPa 0,0 l/m 3,2 km/h (1 Bft) W-NW 292 0 min 0,000 mm 0 W/m -2,2 C -1,2 C 11,3 km/h (2 Bft) 99 %
26.01.2022 18:10 -1,2 C -1,2 C -1,2 C 93 % 1032,6 hPa 0,0 l/m 1,1 km/h (1 Bft) W-NW 290 0 min 0,000 mm 0 W/m -2,2 C -1,2 C 8,0 km/h (2 Bft) 99 %
26.01.2022 18:20 -1,3 C -1,3 C -1,2 C 93 % 1032,5 hPa 0,0 l/m 3,7 km/h (1 Bft) W-SW 246 0 min 0,000 mm 0 W/m -2,3 C -1,3 C 9,7 km/h (2 Bft) 99 %
26.01.2022 18:30 -1,3 C -1,3 C -1,3 C 93 % 1032,4 hPa 0,0 l/m 2,6 km/h (1 Bft) SW 232 0 min 0,000 mm 0 W/m -2,3 C -1,3 C 8,0 km/h (2 Bft) 99 %
26.01.2022 18:40 -1,3 C -1,3 C -1,3 C 93 % 1032,4 hPa 0,0 l/m 3,0 km/h (1 Bft) W-SW 247 0 min 0,000 mm 0 W/m -2,3 C -1,3 C 11,3 km/h (2 Bft) 100 %
26.01.2022 18:50 -1,3 C -1,3 C -1,3 C 93 % 1032,4 hPa 0,0 l/m 1,1 km/h (1 Bft) W-SW 257 0 min 0,000 mm 0 W/m -2,3 C -1,3 C 6,4 km/h (2 Bft) 100 %
26.01.2022 19:00 -1,2 C -1,3 C -1,2 C 93 % 1032,4 hPa 0,0 l/m 0,4 km/h (0 Bft) W 259 0 min 0,000 mm 0 W/m -2,2 C -1,2 C 4,8 km/h (1 Bft) 100 %
26.01.2022 19:10 -1,2 C -1,2 C -1,2 C 93 % 1032,6 hPa 0,0 l/m 0,4 km/h (0 Bft) W 259 0 min 0,000 mm 0 W/m -2,2 C -1,2 C 4,8 km/h (1 Bft) 100 %
26.01.2022 19:20 -1,1 C -1,2 C -1,1 C 93 % 1032,4 hPa 0,0 l/m 1,3 km/h (1 Bft) W 262 0 min 0,000 mm 0 W/m -2,1 C -1,1 C 8,0 km/h (2 Bft) 100 %
26.01.2022 19:30 -1,2 C -1,2 C -1,1 C 93 % 1032,4 hPa 0,0 l/m 4,6 km/h (1 Bft) W 274 0 min 0,000 mm 0 W/m -2,2 C -1,2 C 11,3 km/h (2 Bft) 100 %
26.01.2022 19:40 -1,1 C -1,2 C -1,1 C 93 % 1032,1 hPa 0,0 l/m 1,8 km/h (1 Bft) W-NW 302 0 min 0,000 mm 0 W/m -2,1 C -1,1 C 9,7 km/h (2 Bft) 100 %
26.01.2022 19:50 -1,1 C -1,1 C -1,1 C 93 % 1032,3 hPa 0,0 l/m 1,1 km/h (1 Bft) W-SW 244 0 min 0,000 mm 0 W/m -2,1 C -1,1 C 11,3 km/h (2 Bft) 100 %
26.01.2022 20:00 -1,0 C -1,1 C -1,0 C 93 % 1032,4 hPa 0,0 l/m 1,2 km/h (1 Bft) W 267 0 min 0,000 mm 0 W/m -2,0 C -1,0 C 6,4 km/h (2 Bft) 100 %
26.01.2022 20:10 -0,9 C -1,0 C -0,9 C 93 % 1032,4 hPa 0,0 l/m 0,3 km/h (0 Bft) W 275 0 min 0,000 mm 0 W/m -1,9 C -0,9 C 6,4 km/h (2 Bft) 100 %
26.01.2022 20:20 -0,9 C -0,9 C -0,9 C 93 % 1032,3 hPa 0,0 l/m 0,9 km/h (0 Bft) W 266 0 min 0,000 mm 0 W/m -1,9 C -0,9 C 6,4 km/h (2 Bft) 100 %
26.01.2022 20:30 -0,9 C -0,9 C -0,9 C 93 % 1032,0 hPa 0,0 l/m 2,3 km/h (1 Bft) SW 229 0 min 0,000 mm 0 W/m -1,9 C -0,9 C 11,3 km/h (2 Bft) 100 %
26.01.2022 20:40 -0,9 C -0,9 C -0,9 C 93 % 1032,3 hPa 0,0 l/m 2,1 km/h (1 Bft) W 261 0 min 0,000 mm 0 W/m -1,9 C -0,9 C 11,3 km/h (2 Bft) 100 %
26.01.2022 20:50 -0,9 C -0,9 C -0,9 C 93 % 1032,4 hPa 0,0 l/m 4,0 km/h (1 Bft) W-SW 253 0 min 0,000 mm 0 W/m -1,9 C -0,9 C 14,5 km/h (3 Bft) 100 %
26.01.2022 21:00 -1,0 C -1,0 C -0,9 C 93 % 1032,4 hPa 0,0 l/m 2,4 km/h (1 Bft) W-SW 254 0 min 0,000 mm 0 W/m -2,0 C -1,0 C 8,0 km/h (2 Bft) 99 %
26.01.2022 21:10 -1,0 C -1,0 C -0,9 C 93 % 1032,4 hPa 0,0 l/m 3,2 km/h (1 Bft) W-SW 247 0 min 0,000 mm 0 W/m -2,0 C -1,0 C 16,1 km/h (3 Bft) 100 %
26.01.2022 21:20 -1,0 C -1,0 C -1,0 C 93 % 1032,4 hPa 0,0 l/m 3,2 km/h (1 Bft) W 270 0 min 0,000 mm 0 W/m -2,0 C -1,0 C 9,7 km/h (2 Bft) 100 %
26.01.2022 21:30 -1,0 C -1,0 C -1,0 C 93 % 1032,1 hPa 0,0 l/m 3,2 km/h (1 Bft) W 270 0 min 0,000 mm 0 W/m -2,0 C -1,0 C 9,7 km/h (2 Bft) 100 %
26.01.2022 21:40 -1,1 C -1,1 C -1,0 C 93 % 1032,1 hPa 0,0 l/m 3,2 km/h (1 Bft) SW 225 0 min 0,000 mm 0 W/m -2,1 C -1,1 C 11,3 km/h (2 Bft) 100 %
26.01.2022 21:50 -1,0 C -1,1 C -1,0 C 93 % 1032,0 hPa 0,0 l/m 1,6 km/h (1 Bft) SW 225 0 min 0,000 mm 0 W/m -2,0 C -1,0 C 9,7 km/h (2 Bft) 100 %
26.01.2022 22:00 -1,0 C -1,1 C -1,0 C 93 % 1032,1 hPa 0,0 l/m 4,8 km/h (1 Bft) W-SW 247 0 min 0,000 mm 0 W/m -2,0 C -1,0 C 11,3 km/h (2 Bft) 100 %
26.01.2022 22:10 -1,0 C -1,1 C -1,0 C 93 % 1032,0 hPa 0,0 l/m 1,6 km/h (1 Bft) SW 225 0 min 0,000 mm 0 W/m -2,0 C -1,0 C 11,3 km/h (2 Bft) 100 %
26.01.2022 22:20 -1,1 C -1,1 C -1,0 C 93 % 1032,0 hPa 0,0 l/m 3,2 km/h (1 Bft) SW 225 0 min 0,000 mm 0 W/m -2,1 C -1,1 C 11,3 km/h (2 Bft) 100 %
26.01.2022 22:30 -1,1 C -1,1 C -1,1 C 93 % 1031,8 hPa 0,0 l/m 4,8 km/h (1 Bft) SW 225 0 min 0,000 mm 0 W/m -2,1 C -1,1 C 16,1 km/h (3 Bft) 100 %
26.01.2022 22:40 -1,2 C -1,2 C -1,1 C 93 % 1031,8 hPa 0,0 l/m 1,6 km/h (1 Bft) SW 225 0 min 0,000 mm 0 W/m -2,2 C -1,2 C 14,5 km/h (3 Bft) 100 %
26.01.2022 22:50 -1,2 C -1,2 C -1,2 C 93 % 1031,6 hPa 0,0 l/m 3,2 km/h (1 Bft) W-SW 247 0 min 0,000 mm 0 W/m -2,2 C -1,2 C 11,3 km/h (2 Bft) 100 %
26.01.2022 23:00 -1,2 C -1,2 C -1,2 C 93 % 1031,6 hPa 0,0 l/m 3,2 km/h (1 Bft) SW 225 0 min 0,000 mm 0 W/m -2,2 C -1,2 C 11,3 km/h (2 Bft) 100 %
26.01.2022 23:10 -1,2 C -1,2 C -1,2 C 93 % 1031,6 hPa 0,0 l/m 3,2 km/h (1 Bft) SW 225 0 min 0,000 mm 0 W/m -2,2 C -1,2 C 11,3 km/h (2 Bft) 100 %
26.01.2022 23:20 -1,3 C -1,3 C -1,2 C 93 % 1031,5 hPa 0,0 l/m 6,4 km/h (2 Bft) SW 225 0 min 0,000 mm 0 W/m -2,3 C -1,3 C 17,7 km/h (3 Bft) 100 %
26.01.2022 23:30 -1,3 C -1,3 C -1,3 C 93 % 1031,4 hPa 0,0 l/m 4,8 km/h (1 Bft) W-SW 247 0 min 0,000 mm 0 W/m -2,3 C -1,3 C 14,5 km/h (3 Bft) 100 %
26.01.2022 23:40 -1,4 C -1,4 C -1,3 C 93 % 1031,2 hPa 0,0 l/m 4,8 km/h (1 Bft) SW 225 0 min 0,000 mm 0 W/m -2,4 C -1,4 C 16,1 km/h (3 Bft) 100 %
26.01.2022 23:50 -1,4 C -1,4 C -1,4 C 93 % 1031,2 hPa 0,0 l/m 4,8 km/h (1 Bft) SW 225 0 min 0,000 mm 0 W/m -2,4 C -1,4 C 16,1 km/h (3 Bft) 100 %
_ Min-Zeit 08:00 08:00 08:10 00:00 23:40 - 00:00 - - - - - 08:00 08:00 00:00 08:00
Minimum _ -1,9 C -1,9 C -1,9 C 92 % 1031,2 hPa - 0,0 km/h (0 Bft) - - - - - -3,0 C -1,9 C 0,0 km/h (0 Bft) 88 %
_ Max-Zeit 03:30 03:30 03:30 03:40 11:40 11:00 23:20 - - 00:00 00:00 12:30 03:40 03:20 23:20 00:10
Maximum _ -0,5 C -0,6 C -0,5 C 93 % 1032,9 hPa 0,1 l/m 6,4 km/h
SW (2 Bft)
- - 0 min 0,000 mm 39 W/m -1,6 C -0,6 C 17,7 km/h
S-SW (3 Bft)
100 %
Durchschnitt _ -1,2 C -1,2 C -1,2 C 92 % 1032,2 hPa #0,2 l/m 1,9 km/h (1 Bft) W - #0 min. #0,000 mm 21 W/m -2,3 C -1,2 C 7,5 km/h (2 Bft) 99 %
PRIVATE WETTERSTATION BILLIGHEIM-ALLFELD - www.neckar-odenwald-wetter.de - Holger Sonntag